Location: Home
(42.5358°N, 72.7383°W)
Time: 16:54:50
(UTC-04:00)

Kosmos-337 - Pass Details

Date: 11 July 2022
Orbit: 1467 x 1552 km, 74.0° (Epoch: 18 August)

Event Time Altitude Azimuth Distance (km) Brightness Sun altitude
Rises 02:52:29 0° 328° (NNW) 4,724 ? -20.1°
Reaches altitude 10° 02:56:29 10° 312° (NW) 3,728 ? -19.7°
Maximum altitude 03:02:21 19° 271° (W) 3,021 ? -19.2°
Enters shadow 03:05:10 17° 249° (WSW) 3,183 ? -18.9°
